Back to catalog

NOAA 16 DEB

AlivePO
NORAD 41365·DEBRIS·🇺🇸 United States

Launched Sep 21, 2000 from Vandenberg Space Force Base

Loading…

Next Passes (next 24 hours)

TLE

FreshSource: Space-Track

Epoch: Sep 13, 2026, 18:34 UTC

1 41365U 00055JJ  26256.77387372  .00006188  00000-0  13108-2 0  9992
2 41365  98.9270  92.5534 0023911 198.2087 161.8257 14.59440082552510

Track NOAA 16 DEB in real time with AllMySat

Download on the App Store